EOS-6 (OCEANSAT-3)

Last updated on Mon Dec 15 2025 00:02:49 GMT+0000 (Coordinated Universal Time)

1 54361U 22158A 25348.32711777 .00000516 00000+0 15364-3 0 9997 2 54361 98.3548 84.0270 0001637 137.6194 222.5125 14.47034768161109
UTC large
Height (km)
Speed (km/s)
/
Latitude / Longitude
Inclination (degrees)
Orbital Period (minutes)
Azimuth
Elevation
Range (km)
Doppler Factor

Next 0 passes for location: London (51.5072 / 0.1276)

Sorry there are no passes over London.